Погода в Красной Башкирии

Россия / Республика Башкортостан     53°23′08″N   58°50′35″E
темп.,
°C
ветер,
м/с
пор.,
м/с
влажн.,
%
обл.,
%
осадки,
мм/ч
давл.,
гПа
погр.,
м
26 января, вт
вт2623:00−2юз399231 0.0 1035559
02:00−4юз459091 0.0 103486
05:00−5юз348990 0.0 103451
08:00−5юз349099 0.0 103473
11:00−6юз2390100 0.0 103463
14:00−2юз3986100 0.0 1033293
17:00−4юз348499 0.0 103353
20:00−6юз3386100 0.0 103436
27 января, ср
ср2723:00−6юз3383100 0.0 103337
02:00−7юз3387100 0.0 103340
05:00−7юз2395100 0.0 103432
08:00−4зюз3492100 0.0 103384
11:00−3юз3491100 0.0 103395
14:00−1юз4890100 0.0 1033479
17:00−2юз3490100 0.0 103371
20:00−6юз339121 0.0 103333
28 января, чт
чт2823:00−8ююз239236 0.0 103334
02:00−8юз338992 0.0 103340
05:00−9ююз338695 0.0 103248
08:00−10ююз338698 0.0 103148
11:00−9ююз348699 0.0 103083
14:00−6ююз4788100 0.0 1028160
17:00−8ююз4590100 0.0 102886
20:00−9ююз3485100 0.0 102854
29 января, пт
пт2923:00−9ююз3379100 0.0 102745
02:00−9ююз3476100 0.0 102743
05:00−10ююз3374100 0.0 102635
08:00−11ю3376100 0.0 102528
11:00−12ю2285100 0.0 102438
14:00−10ю2390100 0.0 1022150
17:00−13ююв129499 0.0 102121
20:00−13в0194100 0.0 102020
30 января, сб
сб3023:00−12юв1196100 0.1 101926
02:00−10вюв2396100 0.5 1018170
05:00−10вюв1197100 0.6 101725
08:00−9в0196100 0.2 101753
11:00−9юв1195100 0.3 1017135
14:00−7с1192100 0.1 1016165
17:00−8ююв0197100 0.2 101628
20:00−10ссв1196100 0.0 101621